Weather History for KTWM - June, 2013

Change the Weather History Date:

Tuesday, June 18, 2013

  Actual Average Record
Temperature  
Mean Temperature 48 °F -  
Max Temperature 62 °F 68 °F 82 °F (1984)
Min Temperature 33 °F 45 °F 33 °F (2013)
Degree Days  
Heating Degree Days 18    
Moisture  
Dew Point 34 °F    
Average Humidity 67    
Maximum Humidity 87    
Minimum Humidity 39    
Precipitation  
Precipitation 0.00 in - - ()
Sea Level Pressure  
Sea Level Pressure 30.13 in    
Wind  
Wind Speed 2 mph (East)    
Max Wind Speed 7 mph    
Max Gust Speed -    
Visibility 10 miles    
Events      
Averages and records for this station are not official NWS values.
T = Trace of Precipitation, MM = Missing Value Source: NWS Daily Summary

Daily Weather History Graph

Daily Weather History Graph

Search for Another Location

Airport or City:

Trip Planner

Search our weather history database for the weather conditions in past years. The results will help you decide how hot, cold, wet, or windy it might be!

Date:

Astronomy

Jun. 18, 2013 Rise Set
Actual Time 5:11 AM CDT 9:05 PM CDT
Civil Twilight 4:31 AM CDT 9:45 PM CDT
Nautical Twilight 3:36 AM CDT 10:40 PM CDT
Astronomical Twilight 2:13 AM CDT 12:02 AM CDT
Moon 3:35 PM CDT (6/18) 1:37 AM CDT (6/18)
Length of Visible Light 17h 13m
Length of Day
15h 54m
Waxing Gibbous, 71% of the Moon is Illuminated
Jun 18
Waxing Gibbous
Jun 23
Full
Jun 29
Last Quarter
Jul 8
New
Jul 15
First Quarter

Hourly Weather History & Observations

Time (CDT) Temp. Windchill Dew Point Humidity Pressure Visibility Wind Dir Wind Speed Gust Speed Precip Events Conditions
12:11 AM 42.8 °F 40.1 °F 30.2 °F 61% 30.09 in 10.0 mi North 4.6 mph - N/A   Clear
12:32 AM 42.8 °F - 32.0 °F 66% 30.09 in 10.0 mi Calm Calm - N/A   Clear
12:51 AM 37.4 °F - 33.8 °F 87% 30.09 in 10.0 mi Calm Calm - N/A   Clear
1:11 AM 37.4 °F - 32.0 °F 81% 30.09 in 10.0 mi Calm Calm - N/A   Clear
1:32 AM 37.4 °F - 32.0 °F 81% 30.10 in 10.0 mi Calm Calm - N/A   Clear
1:51 AM 35.6 °F - 30.2 °F 81% 30.11 in 10.0 mi Calm Calm - N/A   Clear
2:11 AM 35.6 °F - 30.2 °F 81% 30.11 in 10.0 mi Calm Calm - N/A   Clear
2:32 AM 35.6 °F - 30.2 °F 81% 30.11 in 10.0 mi Calm Calm - N/A   Clear
2:51 AM 35.6 °F - 30.2 °F 81% 30.12 in 10.0 mi Calm Calm - N/A   Clear
3:11 AM 33.8 °F - 30.2 °F 87% 30.12 in 10.0 mi Calm Calm - N/A   Clear
3:32 AM 33.8 °F - 28.4 °F 81% 30.12 in 10.0 mi Calm Calm - N/A   Clear
3:51 AM 33.8 °F - 28.4 °F 81% 30.12 in 10.0 mi Calm Calm - N/A   Clear
4:11 AM 33.8 °F - 28.4 °F 81% 30.11 in 10.0 mi Calm Calm - N/A   Clear
4:32 AM 33.8 °F - 28.4 °F 81% 30.12 in 10.0 mi Calm Calm - N/A   Clear
4:51 AM 35.6 °F - 30.2 °F 81% 30.12 in 10.0 mi Calm Calm - N/A   Clear
5:11 AM 35.6 °F 32.8 °F 30.2 °F 81% 30.12 in 10.0 mi North 3.5 mph - N/A   Clear
5:31 AM 35.6 °F - 30.2 °F 81% 30.12 in 10.0 mi Calm Calm - N/A   Clear
5:51 AM 35.6 °F - 30.2 °F 81% 30.13 in 10.0 mi Calm Calm - N/A   Clear
6:11 AM 37.4 °F - 33.8 °F 87% 30.14 in 10.0 mi Calm Calm - N/A   Clear
6:31 AM 41.0 °F - 35.6 °F 81% 30.14 in 10.0 mi Calm Calm - N/A   Clear
6:51 AM 44.6 °F - 35.6 °F 71% 30.14 in 10.0 mi Calm Calm - N/A   Clear
7:11 AM 48.2 °F - 35.6 °F 62% 30.14 in 10.0 mi Calm Calm - N/A   Clear
7:31 AM 51.8 °F - 35.6 °F 54% 30.14 in 10.0 mi Calm Calm - N/A   Clear
7:51 AM 53.6 °F - 35.6 °F 51% 30.15 in 10.0 mi Calm Calm - N/A   Clear
8:11 AM 53.6 °F - 37.4 °F 54% 30.15 in 10.0 mi Calm Calm - N/A   Clear
8:31 AM 55.4 °F - 37.4 °F 51% 30.15 in 10.0 mi Calm Calm - N/A   Clear
8:51 AM 57.2 °F - 39.2 °F 51% 30.15 in 10.0 mi East 3.5 mph - N/A   Clear
9:11 AM 59.0 °F - 37.4 °F 45% 30.16 in 10.0 mi East 6.9 mph - N/A   Clear
9:31 AM 60.8 °F - 39.2 °F 45% 30.16 in 10.0 mi SE 5.8 mph - N/A   Clear
9:51 AM 59.0 °F - 39.2 °F 48% 30.16 in 10.0 mi SE 5.8 mph - N/A   Clear
10:11 AM 59.0 °F - 37.4 °F 45% 30.16 in 10.0 mi East 3.5 mph - N/A   Clear
10:32 AM - - - N/A% 30.16 in - East 3.5 mph - N/A   Unknown
10:51 AM 60.8 °F - 37.4 °F 42% 30.16 in 10.0 mi SE 6.9 mph - N/A   Clear
11:11 AM 62.6 °F - 39.2 °F 42% 30.15 in 10.0 mi SSE 5.8 mph - N/A   Clear
11:31 AM 62.6 °F - 37.4 °F 39% 30.16 in 10.0 mi ENE 5.8 mph - N/A   Clear
11:50 AM 62.6 °F - 39.2 °F 42% 30.15 in 10.0 mi SE 5.8 mph - N/A   Clear
1:00 PM - - - N/A% - - North - - N/A   Unknown
8:43 PM - - - N/A% - - North - - N/A   Unknown
9:06 PM - - - N/A% - - North - - N/A   Unknown
10:00 PM - - - N/A% - - North - - N/A   Unknown